Wetbulb
65.88 67.18 68.23 68.16 68.33 68.95 69.92 70.43 70.91 71.42 72.05 73.33 73.49 73.85 74.38 75.36 75.54 74.26 74.41 75.34 75.75 76.12 75.36 73.44 74.03 73.48 73.39 73.28 73.71 73.01 70.93 69.61 67.97
65.11 67.03 68.15 68.72 68.75 69.07 69.66 70.37 71.00 71.26 71.91 72.79 73.34 73.42 74.78 74.44 74.79 74.70 74.31 75.70 75.18 74.18 73.73 72.56 73.82 73.29 72.64 73.35 72.99 71.31 70.42 68.25 66.90
64.52 65.25 66.54 67.90 68.54 68.96 69.73 70.60 70.98 71.74 72.35 72.36 72.95 73.28 73.95 73.89 74.38 75.04 75.66 75.38 74.09 74.22 71.36 72.80 72.99 72.32 72.82 72.92 71.33 70.37 69.22 66.97 66.12
64.17 64.81 66.00 67.22 68.32 69.30 69.88 70.79 71.31 71.30 71.75 72.21 72.44 73.04 73.56 74.22 74.19 74.61 75.20 73.01 73.43 72.18 72.90 71.51 70.74 71.22 71.30 70.54 69.39 68.83 67.69 66.28 64.61
62.67 64.32 65.71 67.62 67.24 68.18 69.14 70.38 71.40 71.78 71.92 71.68 72.44 73.51 73.91 73.48 73.91 74.25 74.62 73.83 73.96 74.25 72.84 73.33 71.60 71.48 69.53 66.96 64.64 66.00 66.20 64.11 61.63
63.55 64.34 65.60 66.69 67.66 67.92 69.52 70.05 72.22 72.21 72.67 72.79 72.54 73.28 73.22 72.13 72.79 72.88 73.21 73.08 73.48 73.95 73.58 73.06 72.23 70.82 66.80 65.22 63.89 63.83 63.83 61.58 60.48
65.41 65.66 65.86 66.61 67.35 67.52 68.48 70.35 71.31 72.18 73.37 73.77 74.71 74.25 73.88 73.21 72.70 72.42 74.15 73.96 73.17 72.71 72.47 70.42 70.49 70.15 70.07 67.51 64.12 61.38 59.79 59.90 60.01
67.93 69.31 68.86 67.24 67.21 68.35 68.70 69.07 70.88 72.17 73.60 75.34 75.03 74.60 74.85 73.53 74.35 73.86 74.00 73.54 73.56 72.55 70.26 70.09 70.71 69.86 68.76 66.07 62.79 59.54 56.80 57.39 57.99
67.20 67.54 70.12 71.04 71.67 71.74 70.46 68.64 69.99 72.42 73.18 75.25 73.76 75.45 74.50 75.10 74.56 74.47 73.33 73.07 72.19 71.55 70.69 70.09 69.48 68.99 68.45 66.09 64.41 60.58 58.48 59.26 60.01
64.13 64.88 65.99 68.70 71.82 73.50 72.37 68.70 71.72 72.72 73.19 73.29 72.31 71.98 71.37 73.14 74.32 72.09 72.27 71.64 71.31 70.71 68.96 69.75 69.53 68.69 67.81 66.29 66.11 60.54 60.03 60.04 59.94
65.70 66.12 65.61 65.93 68.66 72.47 74.15 72.70 72.34 74.65 74.60 74.46 74.79 73.84 74.48 73.48 73.15 72.56 72.55 70.80 70.49 70.12 68.94 68.69 68.96 68.17 67.75 66.40 64.71 60.13 59.57 59.87 60.00
65.68 66.82 67.11 65.94 66.46 70.87 74.50 74.27 74.40 74.63 74.38 74.71 74.61 74.67 75.14 74.80 73.03 72.54 71.35 69.70 69.64 68.37 68.37 69.16 68.37 67.85 66.96 65.95 63.77 59.50 59.12 59.42 58.46
65.16 66.97 68.27 67.87 68.33 68.74 72.72 74.66 75.09 74.68 74.18 74.13 74.68 74.87 75.03 74.63 73.80 73.19 72.13 70.17 68.17 67.93 69.81 68.80 67.53 66.69 66.26 63.58 64.13 58.94 58.47 59.89 59.44
65.84 66.77 67.89 70.12 71.67 69.09 72.68 75.65 75.00 74.28 74.61 74.05 75.19 75.60 74.69 73.48 73.23 72.37 70.73 69.52 68.55 68.12 68.70 66.89 65.96 65.09 64.72 64.73 64.03 61.90 56.59 57.27 60.93
65.84 66.63 68.43 71.62 72.10 72.02 72.94 75.92 75.73 75.14 74.53 75.59 75.99 75.50 73.53 69.26 67.63 67.07 65.82 64.94 65.80 65.80 64.65 64.90 63.71 62.90 62.45 63.41 64.08 59.18 55.71 55.58 56.93
65.40 66.16 70.22 72.86 72.93 72.90 74.16 75.37 75.97 75.07 76.17 75.88 74.09 72.01 67.83 66.39 66.30 65.97 64.65 63.60 62.05 61.79 62.76 63.22 64.15 61.48 60.56 60.63 61.71 61.20 55.34 54.46 55.52
64.97 66.73 70.35 71.65 72.70 72.84 72.98 74.54 75.30 75.32 75.07 74.52 72.00 69.75 67.09 66.46 66.98 65.99 65.48 64.89 63.35 60.98 60.16 61.41 62.99 60.98 59.85 59.76 59.83 60.12 60.07 59.06 58.65
65.69 67.37 70.35 70.97 71.38 72.05 72.65 72.48 73.20 74.30 74.40 72.48 70.86 69.80 67.50 66.55 67.27 65.95 65.26 64.12 63.17 61.79 61.56 61.38 62.35 62.00 61.29 59.08 55.99 58.65 56.60 56.84 57.82
66.40 67.74 70.36 69.88 70.97 71.42 71.63 71.87 72.05 71.96 72.82 71.17 69.55 67.66 66.59 66.11 65.35 65.92 64.88 60.12 58.80 52.70 55.94 54.86 51.67 51.32 57.16 57.91 54.20 48.74 47.05 46.28 46.79
64.99 67.16 69.10 69.23 70.06 71.08 71.75 71.85 69.37 70.28 70.83 69.23 66.93 65.89 65.71 65.39 63.96 65.23 60.78 60.26 59.30 55.46 52.56 49.07 46.73 46.15 47.69 49.81 50.59 45.77 44.38 43.04 43.30
MSLP
1003.55 1004.06 1004.51 1004.88 1005.44 1006.19 1006.88 1007.60 1008.50 1009.26 1010.13 1011.04 1011.63 1012.37 1012.97 1013.77 1014.40 1014.78 1014.99 1015.13 1015.35 1015.40 1015.79 1016.17 1016.13 1016.46 1016.77 1017.42 1017.93 1018.14 1018.52 1018.94 1019.07
1003.58 1004.06 1004.44 1004.72 1005.23 1005.73 1006.42 1007.04 1007.56 1008.42 1009.43 1010.44 1010.99 1011.93 1012.88 1013.63 1014.12 1014.50 1014.88 1015.26 1015.46 1015.98 1016.36 1016.50 1016.83 1016.09 1016.96 1017.42 1017.95 1018.33 1018.60 1019.06 1019.44
1003.94 1004.24 1004.54 1004.79 1005.23 1005.52 1005.81 1006.16 1007.06 1007.98 1008.93 1009.70 1010.29 1011.50 1012.42 1013.07 1013.49 1014.26 1014.53 1014.83 1015.34 1015.90 1016.39 1016.13 1016.87 1016.94 1016.35 1017.54 1018.09 1018.44 1018.93 1019.35 1019.80
1004.10 1004.20 1004.23 1004.61 1004.87 1005.20 1005.36 1005.97 1006.74 1007.69 1008.81 1009.54 1010.26 1011.12 1011.72 1012.39 1012.78 1013.33 1013.64 1014.31 1015.30 1015.78 1016.29 1016.34 1016.51 1017.05 1016.89 1016.89 1017.97 1018.61 1019.14 1019.55 1019.94
1004.31 1004.29 1004.11 1004.24 1004.55 1004.89 1005.24 1005.69 1006.32 1007.39 1008.51 1009.07 1009.80 1010.56 1011.05 1011.38 1012.20 1013.31 1013.67 1014.65 1014.79 1015.27 1015.76 1016.28 1016.36 1016.65 1017.09 1017.18 1017.50 1018.35 1019.14 1019.58 1020.04
1004.39 1004.17 1004.10 1004.29 1004.63 1004.99 1005.26 1005.79 1006.41 1007.34 1008.12 1008.47 1009.24 1010.05 1010.46 1010.49 1010.73 1011.93 1012.66 1014.15 1014.42 1014.93 1015.52 1016.10 1016.56 1016.65 1017.25 1017.78 1017.84 1018.41 1019.29 1019.62 1020.00
1004.79 1004.38 1004.12 1004.12 1004.36 1004.74 1005.35 1005.92 1006.70 1007.40 1007.92 1008.47 1009.06 1009.58 1009.71 1010.01 1010.77 1011.14 1011.96 1013.34 1014.39 1014.73 1015.25 1015.76 1016.46 1016.76 1017.20 1017.90 1018.18 1018.69 1019.38 1019.65 1019.83
1005.34 1004.94 1004.58 1004.54 1004.44 1004.55 1004.92 1005.53 1006.24 1007.01 1007.75 1008.02 1008.39 1008.65 1008.82 1009.16 1010.05 1011.05 1011.76 1012.73 1013.86 1014.64 1015.17 1015.45 1016.16 1016.69 1017.23 1017.85 1018.52 1018.87 1019.58 1020.30 1020.43
1005.53 1005.53 1005.37 1005.30 1005.15 1004.95 1004.79 1005.05 1005.70 1006.33 1007.17 1007.58 1007.76 1007.40 1007.93 1009.19 1010.11 1010.74 1011.18 1012.19 1013.06 1014.19 1014.78 1015.08 1015.80 1016.53 1017.10 1017.80 1018.13 1019.20 1019.80 1019.99 1020.19
1005.57 1005.59 1005.72 1005.57 1005.16 1004.86 1004.96 1005.04 1005.21 1005.85 1006.53 1007.08 1007.15 1007.72 1008.28 1009.11 1009.44 1010.37 1010.44 1011.57 1012.66 1013.62 1014.13 1014.79 1015.48 1016.32 1016.97 1017.46 1017.97 1018.91 1019.51 1019.98 1020.02
1005.34 1005.42 1005.57 1005.26 1005.03 1004.70 1004.47 1004.51 1005.11 1005.63 1006.07 1006.70 1007.05 1007.37 1008.24 1008.75 1009.23 1009.20 1009.93 1011.09 1012.23 1013.21 1013.81 1014.45 1015.31 1016.36 1016.94 1017.25 1017.65 1018.49 1019.19 1019.62 1019.74
1005.65 1005.40 1005.41 1005.51 1005.20 1004.73 1004.91 1004.83 1004.81 1005.42 1005.92 1006.34 1006.88 1007.04 1007.73 1008.25 1008.98 1009.15 1009.69 1010.12 1011.37 1012.63 1013.52 1014.27 1014.98 1015.74 1016.62 1017.23 1017.83 1018.57 1019.13 1019.35 1019.61
1005.66 1005.42 1005.13 1004.84 1004.77 1004.80 1004.75 1005.07 1005.28 1005.25 1005.20 1005.89 1005.70 1006.33 1007.17 1008.01 1008.87 1008.67 1009.42 1010.53 1011.23 1012.36 1012.86 1013.69 1014.78 1015.43 1016.13 1017.12 1017.80 1018.45 1018.73 1019.03 1019.22
1005.81 1005.65 1005.03 1004.66 1004.46 1004.46 1004.50 1004.64 1004.83 1005.17 1005.40 1005.15 1005.45 1005.63 1006.73 1007.85 1008.71 1009.62 1010.66 1011.35 1012.02 1012.43 1013.25 1014.07 1014.78 1015.66 1016.12 1016.73 1017.59 1018.45 1018.78 1019.02 1019.11
1005.76 1005.48 1005.18 1004.84 1004.43 1004.05 1004.22 1004.74 1004.82 1004.79 1004.81 1004.86 1005.68 1005.70 1007.14 1007.78 1008.81 1009.79 1010.91 1012.08 1012.40 1014.15 1013.99 1014.27 1014.69 1015.76 1016.55 1016.98 1017.64 1018.52 1019.04 1019.26 1019.28
1005.54 1005.42 1005.13 1004.78 1004.70 1004.33 1003.79 1004.00 1004.38 1004.36 1003.99 1004.65 1005.33 1006.02 1006.56 1008.22 1008.75 1009.19 1009.32 1008.90 1011.23 1014.33 1014.57 1014.92 1014.86 1015.52 1016.53 1017.17 1017.82 1018.56 1019.18 1019.42 1019.54
1005.48 1005.25 1005.04 1004.84 1004.46 1003.99 1003.64 1003.57 1003.54 1003.78 1004.00 1004.30 1004.51 1005.05 1005.82 1006.88 1008.04 1008.87 1008.51 1008.42 1009.86 1010.95 1012.80 1015.59 1015.62 1015.24 1016.06 1016.56 1017.11 1017.80 1018.76 1019.41 1019.86
1005.35 1005.25 1005.00 1004.85 1004.46 1004.11 1003.85 1004.02 1004.03 1004.11 1004.14 1004.26 1004.53 1005.33 1006.07 1006.83 1007.85 1008.59 1009.26 1009.78 1009.51 1010.98 1011.76 1011.83 1014.57 1014.81 1015.25 1015.79 1016.72 1017.03 1017.78 1018.60 1018.90
1005.28 1005.10 1004.89 1004.60 1004.36 1004.21 1004.16 1004.30 1004.60 1004.71 1004.70 1004.88 1005.26 1005.91 1006.53 1007.11 1007.82 1008.18 1008.70 1009.90 1010.83 1011.49 1011.95 1012.13 1013.77 1014.60 1014.84 1015.65 1016.37 1017.22 1018.06 1018.69 1019.06
1005.08 1005.05 1004.82 1004.51 1004.20 1003.89 1003.78 1004.03 1004.54 1004.94 1005.20 1005.44 1005.90 1006.19 1006.60 1007.22 1007.70 1007.96 1008.64 1009.67 1010.52 1011.21 1012.93 1013.44 1013.99 1014.68 1015.01 1015.60 1016.05 1017.13 1017.98 1018.78 1019.05
Wind_Speed
7 14 15 17 18 17 17 17 17 17 17 14 15 14 14 11 11 7 6 6 5 4 4 7 11 9 9 7 6 5 5 4 4
4 8 10 12 14 16 16 16 18 19 17 15 14 14 11 11 10 10 7 6 5 2 4 5 7 11 9 8 7 6 6 4 5
2 2 5 8 10 13 15 17 17 16 16 17 15 13 11 10 10 9 9 7 8 7 5 9 9 8 13 8 7 7 5 5 5
2 3 5 6 8 12 15 14 14 14 13 15 13 12 10 9 9 11 11 7 7 8 10 9 10 9 9 12 10 8 6 5 5
3 5 6 5 7 8 11 13 14 14 14 14 14 14 14 13 12 10 9 8 11 11 12 11 11 11 10 9 9 8 8 6 6
5 2 2 3 5 5 7 11 10 12 15 15 16 17 16 13 10 13 12 12 12 12 12 12 12 12 9 8 9 9 7 9 9
7 5 4 4 1 4 6 6 8 10 13 14 16 17 17 16 15 15 14 16 13 12 12 12 11 13 13 12 10 8 8 9 12
11 11 10 8 6 1 4 7 9 12 14 16 18 18 17 14 12 12 14 16 15 12 12 11 13 13 12 11 8 7 7 5 7
11 11 10 8 7 8 5 6 10 12 14 14 15 17 16 14 16 16 16 16 15 14 13 14 14 13 14 13 9 13 14 12 10
9 9 8 7 6 6 5 5 11 13 15 15 16 14 13 15 16 15 16 16 16 15 15 15 13 13 14 14 11 17 16 14 10
11 10 7 9 6 6 6 6 8 12 15 16 16 16 12 11 15 17 17 17 16 15 14 14 13 13 14 13 11 19 18 15 12
9 11 8 4 7 8 4 6 12 13 13 15 15 16 14 13 16 17 17 18 17 14 14 13 13 14 14 12 13 17 16 13 11
11 12 11 11 9 5 5 2 7 12 14 14 16 14 14 12 14 16 17 15 14 13 15 14 12 13 13 11 14 15 16 12 10
9 10 14 12 10 5 5 1 5 6 10 14 14 13 12 11 9 8 5 6 8 12 12 12 12 12 11 13 13 14 14 12 10
9 10 12 12 11 11 6 1 3 6 9 8 11 12 9 11 12 11 11 11 7 3 6 13 13 11 9 9 11 11 11 11 5
8 9 9 8 7 9 11 7 4 8 6 8 11 13 15 13 16 15 18 19 13 6 1 5 9 10 10 9 9 9 9 10 7
8 9 7 7 8 8 9 9 9 7 5 9 12 13 16 16 16 15 9 8 12 15 10 5 6 11 11 11 11 10 10 9 7
7 8 7 7 8 7 9 8 9 8 6 7 6 7 10 11 9 11 9 7 11 13 14 17 12 12 12 12 10 12 12 11 10
7 8 9 9 10 9 7 7 6 6 4 6 4 6 7 7 8 9 8 9 6 15 8 13 8 8 10 7 9 14 11 9 9
7 9 10 10 10 10 9 6 5 4 5 7 6 6 7 7 9 9 10 10 11 12 7 9 7 9 11 10 13 15 14 11 9
Wind_Direction
212 200 205 208 206 204 202 200 195 197 192 192 192 197 199 199 204 206 215 204 206 194 172 180 163 151 145 148 153 137 118 109 96
199 198 205 212 207 207 207 202 196 199 188 189 197 191 193 189 199 193 197 203 204 158 153 156 179 147 138 141 138 137 131 115 110
25 251 235 229 208 211 209 206 207 200 191 186 194 182 180 188 197 195 184 187 184 164 162 152 158 151 134 140 135 133 132 126 109
345 283 253 237 218 213 215 210 202 202 186 184 182 172 174 177 192 185 182 174 131 169 170 152 148 151 140 138 141 137 131 117 119
10 299 280 221 210 214 208 207 197 195 182 182 180 166 164 166 161 187 186 173 170 165 166 169 159 158 155 145 131 135 147 146 132
40 353 325 296 236 227 207 208 201 178 178 183 177 175 181 201 172 170 169 178 169 170 168 171 171 159 147 142 137 140 152 147 140
56 44 14 17 319 215 218 216 179 173 172 172 165 177 190 194 180 189 175 165 172 167 169 167 172 162 158 157 151 137 152 160 143
68 51 41 24 19 2 217 187 172 177 174 172 171 180 193 196 186 181 163 159 165 160 169 167 169 160 155 154 154 149 137 141 132
63 65 57 44 22 356 307 196 180 180 179 179 184 199 191 177 180 174 162 154 158 169 172 161 159 159 159 163 167 149 157 158 154
39 43 42 34 34 49 46 177 170 176 177 178 195 204 186 182 176 176 157 155 166 171 163 159 162 168 170 167 164 159 162 168 153
1 1 348 338 336 15 80 123 161 168 177 187 200 219 200 178 181 170 162 162 171 168 161 164 166 174 173 167 164 162 161 162 150
347 340 332 309 302 337 7 131 152 166 182 189 204 217 210 196 187 177 166 167 168 166 166 168 170 171 170 172 159 162 160 163 151
328 331 331 324 336 341 13 44 162 170 177 197 196 200 217 208 196 182 178 169 160 160 171 168 169 166 167 165 164 168 159 167 168
317 320 326 333 330 329 353 127 177 201 195 197 213 200 187 183 191 183 179 147 158 159 169 157 160 162 164 169 168 171 165 182 178
324 328 334 341 335 330 351 15 230 215 213 213 205 180 157 121 113 109 93 54 47 103 150 156 149 155 165 171 168 169 180 177 201
323 330 325 334 338 322 320 318 259 256 248 185 179 152 132 134 135 140 153 130 138 221 178 178 161 165 171 172 174 171 161 177 166
321 320 316 318 317 316 309 316 314 287 260 197 164 158 148 158 154 162 171 146 152 137 149 192 196 175 180 177 176 176 176 185 182
315 301 289 283 286 286 295 309 301 299 267 180 173 158 153 158 164 168 155 151 152 169 181 167 185 193 183 178 177 187 175 181 177
285 286 278 278 282 286 281 265 282 290 233 182 164 168 151 153 161 164 153 140 110 46 110 142 148 170 185 167 161 141 153 158 150
281 277 267 262 276 289 291 322 20 57 104 95 110 144 154 165 171 179 155 157 156 134 88 75 124 154 145 161 157 157 160 162 138